User: anonymous   Login
Location: Unspecified
(43.4680°N, 87.1740°E)
Time: 03:38:53
(UTC+00:00)
Language:

ERS-1 - Orbit

View from above orbital plane
View from above orbital plane
View from above satellite
View from above satellite

Ground track
Ground track

The orbit data is extracted from the following two-line orbital elements,

1 21574U 91050A   21174.48135563  .00000014  00000-0  19652-4 0  9996
2 21574  98.6480 135.0235 0031745 264.1108  95.6460 14.37801873568435
Epoch (UTC): 23 June 2021 11:33:09
Eccentricity: 0.0031745
inclination: 98.6480°
perigee height: 743 km
apogee height: 788 km
right ascension of ascending node: 135.0235°
argument of perigee: 264.1108°
revolutions per day: 14.37801873
mean anomaly at epoch: 95.6460°
orbit number at epoch: 56843

The dashed part of the orbit path shows where the satellite is in the earth's shadow,  

DLR